Location: Unspecified
(0.0000°N, 0.0000°E)
Time: 00:11:41
(UTC+00:00)

Hubble Space Telescope - Pass Details

Date: 17 July 2017
Orbit: 538 x 541 km, 28.5° (Epoch: 22 September)

Event Time Altitude Azimuth Distance (km) Brightness Sun altitude
Exits shadow 04:49:52 23° 193° (SSW) 1,176 2.2 -17.7°
Drops below altitude 10° 04:52:31 10° 154° (SSE) 1,786 3.5 -17.1°
Sets 04:55:07 0° 140° (SE) 2,679 4.6 -16.5°
